Location: Unspecified
(48.8656°N, 0.0000°E)
Time: 22:14:31
(UTC+00:00)

SR - Pass Details

Date: 25 June 2019
Orbit: 575 x 881 km, 66.7° (Epoch: 12 October)

Event Time Altitude Azimuth Distance (km) Brightness Sun altitude
Rises 10:56:26 0° 325° (NW) 2,980 ? 61.4°
Reaches altitude 10° 10:58:40 10° 329° (NNW) 2,109 ? 61.6°
Maximum altitude 11:03:26 65° 52° (NE) 786 ? 62.0°
Drops below altitude 10° 11:08:39 10° 134° (SE) 2,298 ? 62.4°
Sets 11:11:10 0° 138° (SE) 3,271 ? 62.6°
